Year,Month,Day,Hour,Minute,Value (Times are PST for temperature in C)
2007,06,16,00,00,10.90
2007,06,16,00,01,10.90
2007,06,16,00,02,10.90
2007,06,16,00,03,10.90
2007,06,16,00,04,10.90
2007,06,16,00,05,10.80
2007,06,16,00,06,10.80
2007,06,16,00,07,10.80
2007,06,16,00,08,10.80
2007,06,16,00,09,10.70
2007,06,16,00,10,10.70
2007,06,16,00,11,10.70
2007,06,16,00,12,10.70
2007,06,16,00,13,10.60
2007,06,16,00,14,10.60
2007,06,16,00,15,10.60
2007,06,16,00,16,10.50
2007,06,16,00,17,10.50
2007,06,16,00,18,10.50
2007,06,16,00,19,10.40
2007,06,16,00,20,10.40
2007,06,16,00,21,10.40
2007,06,16,00,22,10.40
2007,06,16,00,23,10.40
2007,06,16,00,24,10.30
2007,06,16,00,25,10.30
2007,06,16,00,26,10.30
2007,06,16,00,27,10.30
2007,06,16,00,28,10.30
2007,06,16,00,29,10.30
2007,06,16,00,30,10.30
2007,06,16,00,31,10.20
2007,06,16,00,32,10.20
2007,06,16,00,33,10.20
2007,06,16,00,34,10.20
2007,06,16,00,35,10.20
2007,06,16,00,36,10.20
2007,06,16,00,37,10.20
2007,06,16,00,38,10.20
2007,06,16,00,39,10.20
2007,06,16,00,40,10.20
2007,06,16,00,41,10.20
2007,06,16,00,42,10.10
2007,06,16,00,43,10.10
2007,06,16,00,44,10.10
2007,06,16,00,45,10.10
2007,06,16,00,46,10.10
2007,06,16,00,47,10.10
2007,06,16,00,48,10.10
2007,06,16,00,49,10.10
2007,06,16,00,50,10.10
2007,06,16,00,51,10.10
2007,06,16,00,52,10.10
2007,06,16,00,53,10.10
2007,06,16,00,54,10.10
2007,06,16,00,55,10.00
2007,06,16,00,56,10.00
2007,06,16,00,57,10.00
2007,06,16,00,58,10.00
2007,06,16,00,59,10.00
2007,06,16,01,00,10.00
2007,06,16,01,01,10.00
2007,06,16,01,02,10.00
2007,06,16,01,03,10.00
2007,06,16,01,04,10.00
2007,06,16,01,05,10.00
2007,06,16,01,06,10.00
2007,06,16,01,07,10.00
2007,06,16,01,08,10.00
2007,06,16,01,09,10.00
2007,06,16,01,10,10.00
2007,06,16,01,11,10.00
2007,06,16,01,12,10.00
2007,06,16,01,13,10.00
2007,06,16,01,14,10.00
2007,06,16,01,15,10.00
2007,06,16,01,16,10.00
2007,06,16,01,17,10.00
2007,06,16,01,18,10.00
2007,06,16,01,19,10.00
2007,06,16,01,20,10.00
2007,06,16,01,21,10.00
2007,06,16,01,22,10.00
2007,06,16,01,23,10.00
2007,06,16,01,24,10.00
2007,06,16,01,25,10.00
2007,06,16,01,26,10.00
2007,06,16,01,27,10.00
2007,06,16,01,28,10.00
2007,06,16,01,29,10.00
2007,06,16,01,30,10.00
2007,06,16,01,31,10.00
2007,06,16,01,32,9.90
2007,06,16,01,33,9.90
2007,06,16,01,34,9.90
2007,06,16,01,35,9.90
2007,06,16,01,36,9.90
2007,06,16,01,37,9.90
2007,06,16,01,38,9.90
2007,06,16,01,39,9.90
2007,06,16,01,40,9.90
2007,06,16,01,41,9.90
2007,06,16,01,42,9.90
2007,06,16,01,43,9.90
2007,06,16,01,44,9.90
2007,06,16,01,45,9.90
2007,06,16,01,46,9.90
2007,06,16,01,47,9.90
2007,06,16,01,48,9.80
2007,06,16,01,49,9.80
2007,06,16,01,50,9.80
2007,06,16,01,51,9.80
2007,06,16,01,52,9.80
2007,06,16,01,53,9.80
2007,06,16,01,54,9.80
2007,06,16,01,55,9.90
2007,06,16,01,56,9.80
2007,06,16,01,57,9.90
2007,06,16,01,58,9.90
2007,06,16,01,59,9.90
2007,06,16,02,00,9.90
2007,06,16,02,01,9.90
2007,06,16,02,02,9.90
2007,06,16,02,03,9.90
2007,06,16,02,04,9.90
2007,06,16,02,05,9.90
2007,06,16,02,06,9.90
2007,06,16,02,07,9.90
2007,06,16,02,08,9.90
2007,06,16,02,09,9.90
2007,06,16,02,10,9.90
2007,06,16,02,11,9.90
2007,06,16,02,12,9.90
2007,06,16,02,13,9.90
2007,06,16,02,14,9.90
2007,06,16,02,15,9.90
2007,06,16,02,16,9.90
2007,06,16,02,17,9.90
2007,06,16,02,18,9.90
2007,06,16,02,19,9.90
2007,06,16,02,20,9.90
2007,06,16,02,21,9.90
2007,06,16,02,22,9.90
2007,06,16,02,23,9.90
2007,06,16,02,24,9.90
2007,06,16,02,25,9.90
2007,06,16,02,26,9.90
2007,06,16,02,27,9.90
2007,06,16,02,28,9.90
2007,06,16,02,29,9.90
2007,06,16,02,30,10.00
2007,06,16,02,31,10.00
2007,06,16,02,32,10.00
2007,06,16,02,33,10.00
2007,06,16,02,34,10.00
2007,06,16,02,35,10.00
2007,06,16,02,36,10.00
2007,06,16,02,37,10.00
2007,06,16,02,38,9.90
2007,06,16,02,39,9.90
2007,06,16,02,40,9.90
2007,06,16,02,41,9.90
2007,06,16,02,42,9.90
2007,06,16,02,43,9.90
2007,06,16,02,44,9.90
2007,06,16,02,45,9.90
2007,06,16,02,46,9.90
2007,06,16,02,47,9.90
2007,06,16,02,48,9.90
2007,06,16,02,49,9.90
2007,06,16,02,50,9.90
2007,06,16,02,51,9.90
2007,06,16,02,52,9.90
2007,06,16,02,53,9.90
2007,06,16,02,54,9.90
2007,06,16,02,55,9.90
2007,06,16,02,56,9.80
2007,06,16,02,57,9.80
2007,06,16,02,58,9.80
2007,06,16,02,59,9.90
2007,06,16,03,00,9.90
2007,06,16,03,01,9.90
2007,06,16,03,02,9.80
2007,06,16,03,03,9.80
2007,06,16,03,04,9.80
2007,06,16,03,05,9.80
2007,06,16,03,06,9.80
2007,06,16,03,07,9.80
2007,06,16,03,08,9.70
2007,06,16,03,09,9.70
2007,06,16,03,10,9.70
2007,06,16,03,11,9.70
2007,06,16,03,12,9.70
2007,06,16,03,13,9.60
2007,06,16,03,14,9.60
2007,06,16,03,15,9.60
2007,06,16,03,16,9.60
2007,06,16,03,17,9.60
2007,06,16,03,18,9.60
2007,06,16,03,19,9.50
2007,06,16,03,20,9.50
2007,06,16,03,21,9.50
2007,06,16,03,22,9.50
2007,06,16,03,23,9.50
2007,06,16,03,24,9.50
2007,06,16,03,25,9.50
2007,06,16,03,26,9.50
2007,06,16,03,27,9.60
2007,06,16,03,28,9.60
2007,06,16,03,29,9.60
2007,06,16,03,30,9.60
2007,06,16,03,31,9.60
2007,06,16,03,32,9.60
2007,06,16,03,33,9.60
2007,06,16,03,34,9.60
2007,06,16,03,35,9.60
2007,06,16,03,36,9.60
2007,06,16,03,37,9.60
2007,06,16,03,38,9.50
2007,06,16,03,39,9.50
2007,06,16,03,40,9.40
2007,06,16,03,41,9.40
2007,06,16,03,42,9.40
2007,06,16,03,43,9.50
2007,06,16,03,44,9.50
2007,06,16,03,45,9.50
2007,06,16,03,46,9.50
2007,06,16,03,47,9.50
2007,06,16,03,48,9.50
2007,06,16,03,49,9.50
2007,06,16,03,50,9.50
2007,06,16,03,51,9.50
2007,06,16,03,52,9.50
2007,06,16,03,53,9.50
2007,06,16,03,54,9.50
2007,06,16,03,55,9.60
2007,06,16,03,56,9.60
2007,06,16,03,57,9.60
2007,06,16,03,58,9.60
2007,06,16,03,59,9.60
2007,06,16,04,00,9.60
2007,06,16,04,01,9.60
2007,06,16,04,02,9.60
2007,06,16,04,03,9.60
2007,06,16,04,04,9.60
2007,06,16,04,05,9.60
2007,06,16,04,06,9.60
2007,06,16,04,07,9.70
2007,06,16,04,08,9.70
2007,06,16,04,09,9.70
2007,06,16,04,10,9.70
2007,06,16,04,11,9.70
2007,06,16,04,12,9.70
2007,06,16,04,13,9.80
2007,06,16,04,14,9.80
2007,06,16,04,15,9.80
2007,06,16,04,16,9.80
2007,06,16,04,17,9.90
2007,06,16,04,18,9.90
2007,06,16,04,19,10.00
2007,06,16,04,20,10.00
2007,06,16,04,21,10.10
2007,06,16,04,22,10.10
2007,06,16,04,23,10.10
2007,06,16,04,24,10.10
2007,06,16,04,25,10.20
2007,06,16,04,26,10.20
2007,06,16,04,27,10.20
2007,06,16,04,28,10.20
2007,06,16,04,29,10.20
2007,06,16,04,30,10.30
2007,06,16,04,31,10.30
2007,06,16,04,32,10.30
2007,06,16,04,33,10.30
2007,06,16,04,34,10.30
2007,06,16,04,35,10.30
2007,06,16,04,36,10.30
2007,06,16,04,37,10.30
2007,06,16,04,38,10.30
2007,06,16,04,39,10.30
2007,06,16,04,40,10.20
2007,06,16,04,41,10.20
2007,06,16,04,42,10.20
2007,06,16,04,43,10.20
2007,06,16,04,44,10.20
2007,06,16,04,45,10.20
2007,06,16,04,46,10.20
2007,06,16,04,47,10.20
2007,06,16,04,48,10.20
2007,06,16,04,49,10.20
2007,06,16,04,50,10.20
2007,06,16,04,51,10.20
2007,06,16,04,52,10.20
2007,06,16,04,53,10.20
2007,06,16,04,54,10.20
2007,06,16,04,55,10.10
2007,06,16,04,56,10.10
2007,06,16,04,57,10.10
2007,06,16,04,58,10.10
2007,06,16,04,59,10.10
2007,06,16,05,00,10.10
2007,06,16,05,01,10.10
2007,06,16,05,02,10.10
2007,06,16,05,03,10.10
2007,06,16,05,04,10.10
2007,06,16,05,05,10.10
2007,06,16,05,06,10.10
2007,06,16,05,07,10.10
2007,06,16,05,08,10.10
2007,06,16,05,09,10.10
2007,06,16,05,10,10.10
2007,06,16,05,11,10.10
2007,06,16,05,12,10.10
2007,06,16,05,13,10.10
2007,06,16,05,14,10.10
2007,06,16,05,15,10.10
2007,06,16,05,16,10.10
2007,06,16,05,17,10.10
2007,06,16,05,18,10.10
2007,06,16,05,19,10.10
2007,06,16,05,20,10.10
2007,06,16,05,21,10.10
2007,06,16,05,22,10.10
2007,06,16,05,23,10.20
2007,06,16,05,24,10.20
2007,06,16,05,25,10.20
2007,06,16,05,26,10.20
2007,06,16,05,27,10.20
2007,06,16,05,28,10.20
2007,06,16,05,29,10.30
2007,06,16,05,30,10.30
2007,06,16,05,31,10.30
2007,06,16,05,32,10.30
2007,06,16,05,33,10.30
2007,06,16,05,34,10.30
2007,06,16,05,35,10.30
2007,06,16,05,36,10.30
2007,06,16,05,37,10.30
2007,06,16,05,38,10.30
2007,06,16,05,39,10.30
2007,06,16,05,40,10.30
2007,06,16,05,41,10.30
2007,06,16,05,42,10.40
2007,06,16,05,43,10.40
2007,06,16,05,44,10.40
2007,06,16,05,45,10.40
2007,06,16,05,46,10.40
2007,06,16,05,47,10.40
2007,06,16,05,48,10.40
2007,06,16,05,49,10.50
2007,06,16,05,50,10.50
2007,06,16,05,51,10.50
2007,06,16,05,52,10.50
2007,06,16,05,53,10.60
2007,06,16,05,54,10.60
2007,06,16,05,55,10.60
2007,06,16,05,56,10.60
2007,06,16,05,57,10.70
2007,06,16,05,58,10.70
2007,06,16,05,59,10.70
2007,06,16,06,00,10.70
2007,06,16,06,01,10.80
2007,06,16,06,02,10.80
2007,06,16,06,03,10.80
2007,06,16,06,04,10.80
2007,06,16,06,05,10.80
2007,06,16,06,06,10.80
2007,06,16,06,07,10.80
2007,06,16,06,08,10.80
2007,06,16,06,09,10.80
2007,06,16,06,10,10.80
2007,06,16,06,11,10.80
2007,06,16,06,12,10.80
2007,06,16,06,13,10.80
2007,06,16,06,14,10.80
2007,06,16,06,15,10.80
2007,06,16,06,16,10.80
2007,06,16,06,17,10.80
2007,06,16,06,18,10.80
2007,06,16,06,19,10.80
2007,06,16,06,20,10.80
2007,06,16,06,21,10.80
2007,06,16,06,22,10.80
2007,06,16,06,23,10.80
2007,06,16,06,24,10.80
2007,06,16,06,25,10.80
2007,06,16,06,26,10.80
2007,06,16,06,27,10.80
2007,06,16,06,28,10.80
2007,06,16,06,29,10.80
2007,06,16,06,30,10.80
2007,06,16,06,31,10.80
2007,06,16,06,32,10.80
2007,06,16,06,33,10.80
2007,06,16,06,34,10.80
2007,06,16,06,35,10.90
2007,06,16,06,36,10.90
2007,06,16,06,37,10.90
2007,06,16,06,38,10.90
2007,06,16,06,39,10.90
2007,06,16,06,40,10.90
2007,06,16,06,41,10.90
2007,06,16,06,42,10.90
2007,06,16,06,43,11.00
2007,06,16,06,44,11.00
2007,06,16,06,45,11.00
2007,06,16,06,46,11.10
2007,06,16,06,47,11.10
2007,06,16,06,48,11.20
2007,06,16,06,49,11.20
2007,06,16,06,50,11.20
2007,06,16,06,51,11.20
2007,06,16,06,52,11.20
2007,06,16,06,53,11.30
2007,06,16,06,54,11.40
2007,06,16,06,55,11.40
2007,06,16,06,56,11.40
2007,06,16,06,57,11.40
2007,06,16,06,58,11.40
2007,06,16,06,59,11.40
2007,06,16,07,00,11.40
2007,06,16,07,01,11.40
2007,06,16,07,02,11.40
2007,06,16,07,03,11.40
2007,06,16,07,04,11.40
2007,06,16,07,05,11.40
2007,06,16,07,06,11.40
2007,06,16,07,07,11.40
2007,06,16,07,08,11.40
2007,06,16,07,09,11.40
2007,06,16,07,10,11.40
2007,06,16,07,11,11.40
2007,06,16,07,12,11.40
2007,06,16,07,13,11.40
2007,06,16,07,14,11.40
2007,06,16,07,15,11.40
2007,06,16,07,16,11.40
2007,06,16,07,17,11.40
2007,06,16,07,18,11.40
2007,06,16,07,19,11.40
2007,06,16,07,20,11.40
2007,06,16,07,21,11.40
2007,06,16,07,22,11.40
2007,06,16,07,23,11.40
2007,06,16,07,24,11.40
2007,06,16,07,25,11.50
2007,06,16,07,26,11.50
2007,06,16,07,27,11.50
2007,06,16,07,28,11.50
2007,06,16,07,29,11.50
2007,06,16,07,30,11.60
2007,06,16,07,31,11.60
2007,06,16,07,32,11.70
2007,06,16,07,33,11.70
2007,06,16,07,34,11.80
2007,06,16,07,35,11.90
2007,06,16,07,36,11.90
2007,06,16,07,37,11.90
2007,06,16,07,38,12.00
2007,06,16,07,39,12.00
2007,06,16,07,40,12.10
2007,06,16,07,41,12.10
2007,06,16,07,42,12.20
2007,06,16,07,43,12.20
2007,06,16,07,44,12.20
2007,06,16,07,45,12.20
2007,06,16,07,46,12.30
2007,06,16,07,47,12.30
2007,06,16,07,48,12.30
2007,06,16,07,49,12.30
2007,06,16,07,50,12.30
2007,06,16,07,51,12.30
2007,06,16,07,52,12.30
2007,06,16,07,53,12.30
2007,06,16,07,54,12.30
2007,06,16,07,55,12.30
2007,06,16,07,56,12.30
2007,06,16,07,57,12.30
2007,06,16,07,58,12.30
2007,06,16,07,59,12.30
2007,06,16,08,00,12.30
2007,06,16,08,01,12.30
2007,06,16,08,02,12.40
2007,06,16,08,03,12.40
2007,06,16,08,04,12.40
2007,06,16,08,05,12.40
2007,06,16,08,06,12.40
2007,06,16,08,07,12.40
2007,06,16,08,08,12.40
2007,06,16,08,09,12.40
2007,06,16,08,10,12.40
2007,06,16,08,11,12.40
2007,06,16,08,12,12.50
2007,06,16,08,13,12.50
2007,06,16,08,14,12.50
2007,06,16,08,15,12.50
2007,06,16,08,16,12.50
2007,06,16,08,17,12.50
2007,06,16,08,18,12.60
2007,06,16,08,19,12.60
2007,06,16,08,20,12.60
2007,06,16,08,21,12.70
2007,06,16,08,22,12.70
2007,06,16,08,23,12.70
2007,06,16,08,24,12.80
2007,06,16,08,25,12.80
2007,06,16,08,26,12.80
2007,06,16,08,27,12.90
2007,06,16,08,28,12.90
2007,06,16,08,29,12.90
2007,06,16,08,30,12.90
2007,06,16,08,31,12.90
2007,06,16,08,32,12.90
2007,06,16,08,33,12.90
2007,06,16,08,34,13.00
2007,06,16,08,35,13.00
2007,06,16,08,36,13.00
2007,06,16,08,37,13.00
2007,06,16,08,38,13.00
2007,06,16,08,39,13.00
2007,06,16,08,40,13.00
2007,06,16,08,41,13.00
2007,06,16,08,42,13.00
2007,06,16,08,43,13.00
2007,06,16,08,44,13.10
2007,06,16,08,45,13.10
2007,06,16,08,46,13.10
2007,06,16,08,47,13.10
2007,06,16,08,48,13.10
2007,06,16,08,49,13.20
2007,06,16,08,50,13.20
2007,06,16,08,51,13.20
2007,06,16,08,52,13.20
2007,06,16,08,53,13.20
2007,06,16,08,54,13.20
2007,06,16,08,55,13.20
2007,06,16,08,56,13.20
2007,06,16,08,57,13.20
2007,06,16,08,58,13.20
2007,06,16,08,59,13.20
2007,06,16,09,00,13.20
2007,06,16,09,01,13.30
2007,06,16,09,02,13.30
2007,06,16,09,03,13.30
2007,06,16,09,04,13.30
2007,06,16,09,05,13.30
2007,06,16,09,06,13.40
2007,06,16,09,07,13.40
2007,06,16,09,08,13.40
2007,06,16,09,09,13.50
2007,06,16,09,10,13.60
2007,06,16,09,11,13.70
2007,06,16,09,12,13.80
2007,06,16,09,13,13.90
2007,06,16,09,14,14.10
2007,06,16,09,15,14.20
2007,06,16,09,16,14.20
2007,06,16,09,17,14.30
2007,06,16,09,18,14.30
2007,06,16,09,19,14.40
2007,06,16,09,20,14.40
2007,06,16,09,21,14.40
2007,06,16,09,22,14.40
2007,06,16,09,23,14.50
2007,06,16,09,24,14.40
2007,06,16,09,25,14.50
2007,06,16,09,26,14.50
2007,06,16,09,27,14.50
2007,06,16,09,28,14.60
2007,06,16,09,29,14.60
2007,06,16,09,30,14.60
2007,06,16,09,31,14.60
2007,06,16,09,32,14.60
2007,06,16,09,33,14.60
2007,06,16,09,34,14.70
2007,06,16,09,35,14.80
2007,06,16,09,36,14.80
2007,06,16,09,37,14.90
2007,06,16,09,38,15.00
2007,06,16,09,39,15.00
2007,06,16,09,40,15.00
2007,06,16,09,41,15.00
2007,06,16,09,42,15.00
2007,06,16,09,43,15.10
2007,06,16,09,44,15.20
2007,06,16,09,45,15.20
2007,06,16,09,46,15.10
2007,06,16,09,47,15.00
2007,06,16,09,48,15.00
2007,06,16,09,49,15.00
2007,06,16,09,50,15.00
2007,06,16,09,51,15.00
2007,06,16,09,52,14.90
2007,06,16,09,53,15.00
2007,06,16,09,54,15.00
2007,06,16,09,55,15.00
2007,06,16,09,56,15.00
2007,06,16,09,57,15.10
2007,06,16,09,58,15.20
2007,06,16,09,59,15.20
2007,06,16,10,00,15.20
2007,06,16,10,01,15.30
2007,06,16,10,02,15.30
2007,06,16,10,03,15.30
2007,06,16,10,04,15.40
2007,06,16,10,05,15.50
2007,06,16,10,06,15.60
2007,06,16,10,07,15.60
2007,06,16,10,08,15.60
2007,06,16,10,09,15.60
2007,06,16,10,10,15.60
2007,06,16,10,11,15.70
2007,06,16,10,12,15.70
2007,06,16,10,13,15.80
2007,06,16,10,14,15.80
2007,06,16,10,15,15.80
2007,06,16,10,16,15.90
2007,06,16,10,17,15.80
2007,06,16,10,18,15.80
2007,06,16,10,19,15.80
2007,06,16,10,20,15.80
2007,06,16,10,21,15.90
2007,06,16,10,22,15.90
2007,06,16,10,23,15.90
2007,06,16,10,24,15.90
2007,06,16,10,25,15.90
2007,06,16,10,26,15.90
2007,06,16,10,27,15.90
2007,06,16,10,28,15.90
2007,06,16,10,29,15.80
2007,06,16,10,30,15.80
2007,06,16,10,31,15.80
2007,06,16,10,32,15.90
2007,06,16,10,33,15.90
2007,06,16,10,34,16.00
2007,06,16,10,35,16.00
2007,06,16,10,36,16.10
2007,06,16,10,37,16.00
2007,06,16,10,38,16.00
2007,06,16,10,39,16.00
2007,06,16,10,40,16.10
2007,06,16,10,41,16.00
2007,06,16,10,42,15.90
2007,06,16,10,43,15.80
2007,06,16,10,44,15.80
2007,06,16,10,45,15.90
2007,06,16,10,46,15.90
2007,06,16,10,47,16.00
2007,06,16,10,48,16.00
2007,06,16,10,49,16.00
2007,06,16,10,50,16.00
2007,06,16,10,51,15.90
2007,06,16,10,52,15.90
2007,06,16,10,53,15.90
2007,06,16,10,54,15.90
2007,06,16,10,55,16.10
2007,06,16,10,56,16.10
2007,06,16,10,57,16.10
2007,06,16,10,58,16.20
2007,06,16,10,59,16.30
2007,06,16,11,00,16.30
2007,06,16,11,01,16.30
2007,06,16,11,02,16.30
2007,06,16,11,03,16.30
2007,06,16,11,04,16.30
2007,06,16,11,05,16.30
2007,06,16,11,06,16.30
2007,06,16,11,07,16.20
2007,06,16,11,08,16.10
2007,06,16,11,09,16.00
2007,06,16,11,10,15.90
2007,06,16,11,11,15.80
2007,06,16,11,12,15.80
2007,06,16,11,13,15.80
2007,06,16,11,14,15.80
2007,06,16,11,15,15.90
2007,06,16,11,16,15.90
2007,06,16,11,17,15.90
2007,06,16,11,18,15.90
2007,06,16,11,19,15.90
2007,06,16,11,20,15.80
2007,06,16,11,21,15.80
2007,06,16,11,22,15.80
2007,06,16,11,23,15.80
2007,06,16,11,24,15.80
2007,06,16,11,25,15.80
2007,06,16,11,26,15.90
2007,06,16,11,27,15.90
2007,06,16,11,28,15.90
2007,06,16,11,29,15.90
2007,06,16,11,30,15.80
2007,06,16,11,31,15.80
2007,06,16,11,32,15.90
2007,06,16,11,33,15.90
2007,06,16,11,34,15.90
2007,06,16,11,35,16.00
2007,06,16,11,36,16.00
2007,06,16,11,37,16.10
2007,06,16,11,38,16.10
2007,06,16,11,39,16.20
2007,06,16,11,40,16.30
2007,06,16,11,41,16.30
2007,06,16,11,42,16.40
2007,06,16,11,43,16.40
2007,06,16,11,44,16.50
2007,06,16,11,45,16.50
2007,06,16,11,46,16.60
2007,06,16,11,47,16.60
2007,06,16,11,48,16.50
2007,06,16,11,49,16.50
2007,06,16,11,50,16.50
2007,06,16,11,51,16.40
2007,06,16,11,52,16.50
2007,06,16,11,53,16.50
2007,06,16,11,54,16.50
2007,06,16,11,55,16.50
2007,06,16,11,56,16.40
2007,06,16,11,57,16.40
2007,06,16,11,58,16.40
2007,06,16,11,59,16.40
2007,06,16,12,00,16.30
2007,06,16,12,01,16.30
2007,06,16,12,02,16.30
2007,06,16,12,03,16.40
2007,06,16,12,04,16.40
2007,06,16,12,05,16.40
2007,06,16,12,06,16.50
2007,06,16,12,07,16.60
2007,06,16,12,08,16.50
2007,06,16,12,09,16.60
2007,06,16,12,10,16.70
2007,06,16,12,11,16.70
2007,06,16,12,12,16.80
2007,06,16,12,13,16.80
2007,06,16,12,14,16.80
2007,06,16,12,15,16.90
2007,06,16,12,16,16.90
2007,06,16,12,17,17.00
2007,06,16,12,18,17.00
2007,06,16,12,19,17.00
2007,06,16,12,20,16.80
2007,06,16,12,21,16.70
2007,06,16,12,22,16.60
2007,06,16,12,23,16.40
2007,06,16,12,24,16.40
2007,06,16,12,25,16.40
2007,06,16,12,26,16.40
2007,06,16,12,27,16.50
2007,06,16,12,28,16.40
2007,06,16,12,29,16.40
2007,06,16,12,30,16.40
2007,06,16,12,31,16.40
2007,06,16,12,32,16.30
2007,06,16,12,33,16.30
2007,06,16,12,34,16.30
2007,06,16,12,35,16.30
2007,06,16,12,36,16.40
2007,06,16,12,37,16.40
2007,06,16,12,38,16.40
2007,06,16,12,39,16.30
2007,06,16,12,40,16.20
2007,06,16,12,41,16.10
2007,06,16,12,42,16.00
2007,06,16,12,43,16.00
2007,06,16,12,44,16.00
2007,06,16,12,45,16.00
2007,06,16,12,46,16.10
2007,06,16,12,47,16.30
2007,06,16,12,48,16.40
2007,06,16,12,49,16.50
2007,06,16,12,50,16.50
2007,06,16,12,51,16.60
2007,06,16,12,52,16.70
2007,06,16,12,53,16.70
2007,06,16,12,54,16.70
2007,06,16,12,55,16.70
2007,06,16,12,56,16.70
2007,06,16,12,57,16.80
2007,06,16,12,58,16.90
2007,06,16,12,59,17.00
2007,06,16,13,00,17.10
2007,06,16,13,01,17.10
2007,06,16,13,02,17.10
2007,06,16,13,03,17.00
2007,06,16,13,04,17.00
2007,06,16,13,05,17.00
2007,06,16,13,06,17.00
2007,06,16,13,07,17.20
2007,06,16,13,08,17.30
2007,06,16,13,09,17.40
2007,06,16,13,10,17.50
2007,06,16,13,11,17.40
2007,06,16,13,12,17.40
2007,06,16,13,13,17.40
2007,06,16,13,14,17.50
2007,06,16,13,15,17.50
2007,06,16,13,16,17.50
2007,06,16,13,17,17.40
2007,06,16,13,18,17.40
2007,06,16,13,19,17.40
2007,06,16,13,20,17.60
2007,06,16,13,21,17.70
2007,06,16,13,22,17.80
2007,06,16,13,23,17.90
2007,06,16,13,24,17.90
2007,06,16,13,25,17.80
2007,06,16,13,26,17.80
2007,06,16,13,27,17.60
2007,06,16,13,28,17.40
2007,06,16,13,29,17.20
2007,06,16,13,30,17.10
2007,06,16,13,31,17.00
2007,06,16,13,32,16.90
2007,06,16,13,33,16.80
2007,06,16,13,34,16.70
2007,06,16,13,35,16.60
2007,06,16,13,36,16.60
2007,06,16,13,37,16.60
2007,06,16,13,38,16.50
2007,06,16,13,39,16.40
2007,06,16,13,40,16.30
2007,06,16,13,41,16.30
2007,06,16,13,42,16.40
2007,06,16,13,43,16.40
2007,06,16,13,44,16.50
2007,06,16,13,45,16.60
2007,06,16,13,46,16.60
2007,06,16,13,47,16.60
2007,06,16,13,48,16.60
2007,06,16,13,49,16.70
2007,06,16,13,50,16.80
2007,06,16,13,51,16.80
2007,06,16,13,52,16.90
2007,06,16,13,53,16.80
2007,06,16,13,54,16.80
2007,06,16,13,55,16.80
2007,06,16,13,56,16.70
2007,06,16,13,57,16.70
2007,06,16,13,58,16.70
2007,06,16,13,59,16.70
2007,06,16,14,00,16.60
2007,06,16,14,01,16.70
2007,06,16,14,02,16.80
2007,06,16,14,03,16.90
2007,06,16,14,04,17.10
2007,06,16,14,05,17.30
2007,06,16,14,06,17.30
2007,06,16,14,07,17.30
2007,06,16,14,08,17.40
2007,06,16,14,09,17.40
2007,06,16,14,10,17.40
2007,06,16,14,11,17.40
2007,06,16,14,12,17.30
2007,06,16,14,13,17.20
2007,06,16,14,14,17.10
2007,06,16,14,15,16.90
2007,06,16,14,16,16.80
2007,06,16,14,17,16.70
2007,06,16,14,18,16.50
2007,06,16,14,19,16.30
2007,06,16,14,20,16.20
2007,06,16,14,21,16.10
2007,06,16,14,22,16.10
2007,06,16,14,23,16.10
2007,06,16,14,24,16.00
2007,06,16,14,25,15.90
2007,06,16,14,26,15.90
2007,06,16,14,27,16.00
2007,06,16,14,28,16.10
2007,06,16,14,29,16.10
2007,06,16,14,30,16.30
2007,06,16,14,31,16.30
2007,06,16,14,32,16.40
2007,06,16,14,33,16.40
2007,06,16,14,34,16.40
2007,06,16,14,35,16.40
2007,06,16,14,36,16.40
2007,06,16,14,37,16.40
2007,06,16,14,38,16.30
2007,06,16,14,39,16.30
2007,06,16,14,40,16.30
2007,06,16,14,41,16.30
2007,06,16,14,42,16.30
2007,06,16,14,43,16.30
2007,06,16,14,44,16.30
2007,06,16,14,45,16.30
2007,06,16,14,46,16.20
2007,06,16,14,47,16.30
2007,06,16,14,48,16.30
2007,06,16,14,49,16.30
2007,06,16,14,50,16.30
2007,06,16,14,51,16.20
2007,06,16,14,52,16.20
2007,06,16,14,53,16.20
2007,06,16,14,54,16.20
2007,06,16,14,55,16.30
2007,06,16,14,56,16.30
2007,06,16,14,57,16.30
2007,06,16,14,58,16.30
2007,06,16,14,59,16.30
2007,06,16,15,00,16.30
2007,06,16,15,01,16.30
2007,06,16,15,02,16.20
2007,06,16,15,03,16.10
2007,06,16,15,04,16.10
2007,06,16,15,05,16.00
2007,06,16,15,06,16.00
2007,06,16,15,07,16.00
2007,06,16,15,08,15.90
2007,06,16,15,09,15.90
2007,06,16,15,10,15.90
2007,06,16,15,11,15.90
2007,06,16,15,12,16.00
2007,06,16,15,13,16.10
2007,06,16,15,14,16.10
2007,06,16,15,15,16.10
2007,06,16,15,16,16.20
2007,06,16,15,17,16.20
2007,06,16,15,18,16.30
2007,06,16,15,19,16.20
2007,06,16,15,20,16.20
2007,06,16,15,21,16.20
2007,06,16,15,22,16.20
2007,06,16,15,23,16.20
2007,06,16,15,24,16.10
2007,06,16,15,25,16.10
2007,06,16,15,26,16.00
2007,06,16,15,27,15.90
2007,06,16,15,28,16.00
2007,06,16,15,29,16.10
2007,06,16,15,30,16.20
2007,06,16,15,31,16.40
2007,06,16,15,32,16.60
2007,06,16,15,33,16.70
2007,06,16,15,34,16.70
2007,06,16,15,35,16.70
2007,06,16,15,36,16.60
2007,06,16,15,37,16.60
2007,06,16,15,38,16.60
2007,06,16,15,39,16.60
2007,06,16,15,40,16.60
2007,06,16,15,41,16.60
2007,06,16,15,42,16.70
2007,06,16,15,43,16.80
2007,06,16,15,44,16.90
2007,06,16,15,45,17.00
2007,06,16,15,46,17.10
2007,06,16,15,47,17.10
2007,06,16,15,48,17.10
2007,06,16,15,49,16.90
2007,06,16,15,50,16.80
2007,06,16,15,51,16.60
2007,06,16,15,52,16.60
2007,06,16,15,53,16.50
2007,06,16,15,54,16.50
2007,06,16,15,55,16.40
2007,06,16,15,56,16.40
2007,06,16,15,57,16.40
2007,06,16,15,58,16.40
2007,06,16,15,59,16.30
2007,06,16,16,00,16.30
2007,06,16,16,01,16.30
2007,06,16,16,02,16.40
2007,06,16,16,03,16.50
2007,06,16,16,04,16.70
2007,06,16,16,05,16.80
2007,06,16,16,06,16.80
2007,06,16,16,07,16.80
2007,06,16,16,08,16.80
2007,06,16,16,09,16.80
2007,06,16,16,10,16.70
2007,06,16,16,11,16.60
2007,06,16,16,12,16.60
2007,06,16,16,13,16.60
2007,06,16,16,14,16.60
2007,06,16,16,15,16.60
2007,06,16,16,16,16.50
2007,06,16,16,17,16.50
2007,06,16,16,18,16.40
2007,06,16,16,19,16.40
2007,06,16,16,20,16.50
2007,06,16,16,21,16.50
2007,06,16,16,22,16.40
2007,06,16,16,23,16.40
2007,06,16,16,24,16.30
2007,06,16,16,25,16.20
2007,06,16,16,26,16.10
2007,06,16,16,27,16.00
2007,06,16,16,28,15.90
2007,06,16,16,29,15.80
2007,06,16,16,30,15.80
2007,06,16,16,31,15.70
2007,06,16,16,32,15.70
2007,06,16,16,33,15.70
2007,06,16,16,34,15.70
2007,06,16,16,35,15.70
2007,06,16,16,36,15.60
2007,06,16,16,37,15.40
2007,06,16,16,38,15.30
2007,06,16,16,39,15.20
2007,06,16,16,40,15.10
2007,06,16,16,41,15.00
2007,06,16,16,42,15.00
2007,06,16,16,43,14.90
2007,06,16,16,44,14.80
2007,06,16,16,45,14.70
2007,06,16,16,46,14.80
2007,06,16,16,47,14.80
2007,06,16,16,48,14.90
2007,06,16,16,49,14.90
2007,06,16,16,50,15.00
2007,06,16,16,51,15.00
2007,06,16,16,52,15.00
2007,06,16,16,53,15.00
2007,06,16,16,54,14.90
2007,06,16,16,55,14.90
2007,06,16,16,56,15.00
2007,06,16,16,57,14.90
2007,06,16,16,58,14.80
2007,06,16,16,59,14.70
2007,06,16,17,00,14.70
2007,06,16,17,01,14.60
2007,06,16,17,02,14.60
2007,06,16,17,03,14.60
2007,06,16,17,04,14.60
2007,06,16,17,05,14.60
2007,06,16,17,06,14.50
2007,06,16,17,07,14.60
2007,06,16,17,08,14.60
2007,06,16,17,09,14.60
2007,06,16,17,10,14.60
2007,06,16,17,11,14.60
2007,06,16,17,12,14.60
2007,06,16,17,13,14.60
2007,06,16,17,14,14.60
2007,06,16,17,15,14.60
2007,06,16,17,16,14.60
2007,06,16,17,17,14.60
2007,06,16,17,18,14.60
2007,06,16,17,19,14.70
2007,06,16,17,20,14.70
2007,06,16,17,21,14.80
2007,06,16,17,22,14.80
2007,06,16,17,23,14.90
2007,06,16,17,24,15.00
2007,06,16,17,25,15.00
2007,06,16,17,26,15.00